Dewpoint
8 8 8 6 7 9 10 11 10 10 10 8 10 8 6 5 5 5 7 6 6 5 5 4 5 6 6 5 5 5 4 3 2 2 2 1 0 -1
8 10 9 6 6 8 9 10 10 10 9 9 8 7 6 5 5 5 6 4 4 4 4 4 4 4 4 3 3 2 3 2 1 2 1 -1 -2 -6
9 9 6 3 1 7 9 7 9 9 8 9 9 8 6 5 5 5 5 4 4 3 3 3 3 3 3 2 2 2 1 1 0 -0 -1 -10 -22 -28
1 -1 -2 -3 -2 2 4 8 9 8 8 8 8 7 6 6 5 4 4 4 3 2 2 2 2 2 2 2 1 1 0 -0 -1 -12 -25 -30 -32 -31
-1 -1 -1 -1 -0 1 4 8 9 8 8 8 8 7 6 5 4 4 3 3 2 2 2 2 1 1 1 0 -0 -1 -8 -20 -28 -31 -32 -31 -22 -17
0 0 1 2 3 6 7 6 7 7 7 8 7 6 6 5 4 3 3 2 2 2 0 0 0 -1 -2 -9 -20 -27 -29 -31 -32 -30 -21 -17 -16 -17
1 1 2 4 5 6 6 7 7 7 7 6 6 5 4 3 3 2 2 1 1 0 -1 -4 -11 -21 -25 -27 -29 -31 -31 -29 -23 -16 -16 -16 -16 -15
2 2 2 4 4 5 6 6 6 6 5 5 4 4 3 3 2 2 1 1 -0 -3 -13 -22 -24 -28 -28 -28 -29 -25 -19 -16 -15 -16 -16 -15 -16 -16
2 2 2 3 3 4 4 5 5 5 4 3 3 3 2 2 1 1 0 -1 -6 -17 -23 -24 -27 -27 -25 -24 -20 -15 -15 -16 -16 -15 -15 -16 -16 -16
1 1 2 2 3 3 3 3 3 3 2 2 2 1 1 1 -0 -7 -18 -21 -23 -25 -26 -27 -28 -24 -20 -16 -15 -15 -15 -15 -16 -16 -16 -16 -15 -14
0 1 2 2 2 2 2 1 1 2 2 2 1 -0 -3 -13 -23 -27 -28 -27 -27 -27 -26 -25 -24 -19 -15 -15 -15 -15 -15 -15 -15 -15 -15 -14 -14 -15
1 1 1 1 1 1 1 1 0 -0 -1 -2 -9 -20 -29 -31 -31 -30 -30 -30 -29 -29 -26 -22 -20 -16 -15 -15 -14 -14 -14 -15 -15 -14 -14 -14 -14 -14
1 1 1 1 1 1 0 -2 -9 -18 -25 -28 -29 -29 -29 -29 -29 -29 -29 -29 -29 -30 -23 -20 -16 -15 -15 -14 -14 -14 -14 -14 -13 -13 -12 -12 -11 -11
0 -0 -0 -0 -1 -4 -9 -21 -29 -30 -29 -27 -27 -28 -28 -28 -28 -28 -28 -28 -27 -28 -25 -20 -16 -15 -14 -14 -13 -14 -13 -12 -12 -12 -12 -12 -11 -11
-1 -1 -1 -4 -14 -21 -27 -28 -29 -28 -28 -27 -27 -28 -29 -28 -28 -29 -28 -27 -25 -23 -20 -17 -15 -15 -14 -14 -14 -14 -13 -13 -13 -13 -12 -12 -13 -14
-1 -3 -11 -19 -22 -24 -27 -27 -27 -27 -27 -27 -26 -28 -28 -28 -28 -28 -29 -27 -24 -21 -18 -16 -15 -15 -15 -15 -15 -16 -15 -15 -15 -15 -17 -19 -20 -19
-6 -14 -20 -22 -25 -26 -27 -27 -26 -26 -27 -24 -27 -28 -27 -27 -28 -28 -27 -27 -26 -23 -20 -18 -18 -18 -18 -19 -20 -20 -20 -20 -20 -20 -19 -18 -17 -16
-13 -18 -20 -23 -26 -27 -27 -26 -24 -25 -26 -26 -27 -28 -27 -27 -27 -27 -27 -27 -26 -25 -25 -25 -25 -24 -23 -22 -21 -20 -20 -19 -19 -18 -17 -16 -14 -13
-13 -18 -21 -25 -28 -27 -27 -26 -25 -24 -25 -26 -27 -27 -26 -26 -25 -25 -25 -25 -24 -24 -24 -24 -23 -23 -22 -21 -19 -19 -18 -17 -16 -15 -15 -13 -12 -12
-7 -11 -20 -24 -26 -25 -27 -29 -27 -25 -25 -26 -25 -25 -26 -25 -25 -24 -24 -23 -22 -22 -22 -22 -22 -22 -20 -19 -18 -18 -16 -15 -15 -14 -13 -12 -11 -12
-3 -4 -8 -21 -21 -21 -22 -25 -28 -27 -26 -26 -26 -26 -25 -25 -25 -24 -24 -23 -22 -21 -20 -20 -20 -19 -19 -19 -18 -18 -16 -14 -13 -12 -11 -11 -12 -14
-2 -2 -3 -17 -19 -20 -20 -21 -21 -24 -27 -28 -28 -27 -26 -26 -26 -26 -25 -24 -23 -21 -20 -20 -20 -20 -20 -19 -19 -18 -17 -14 -12 -11 -11 -11 -12 -12
-2 -2 -2 -3 -14 -17 -19 -20 -21 -22 -22 -23 -25 -27 -28 -28 -27 -26 -26 -25 -24 -23 -22 -20 -20 -20 -20 -19 -19 -18 -17 -14 -12 -12 -12 -12 -12 -12
Wind_Speed
22 29 27 27 31 31 25 26 27 26 27 28 27 23 18 17 18 17 15 14 14 14 16 18 18 17 18 20 22 20 19 20 19 18 17 15 17 17
31 35 33 32 30 26 25 26 26 31 29 25 25 20 17 17 18 16 15 15 17 15 16 17 16 17 16 18 19 20 19 18 18 17 16 16 16 15
33 32 31 32 32 28 29 28 27 30 29 27 31 19 19 19 17 19 16 16 15 15 16 17 18 18 19 17 17 17 18 16 16 17 17 15 15 15
30 31 32 31 31 28 28 26 27 27 28 26 25 22 21 20 19 16 15 15 16 16 17 18 16 15 14 14 15 16 16 17 16 15 15 14 14 13
28 29 28 27 26 24 24 27 23 27 29 27 30 25 21 21 18 16 17 17 16 16 15 13 13 13 14 16 15 15 15 15 15 15 13 11 6 5
27 26 25 24 23 20 23 24 24 23 26 28 25 20 20 18 18 17 16 14 15 15 14 14 14 14 16 16 15 15 14 14 12 10 6 5 6 6
24 24 23 22 19 21 22 21 23 24 22 22 21 21 20 19 18 16 15 15 15 17 15 15 14 15 16 14 13 12 11 10 7 6 7 7 8 8
20 21 20 19 20 22 20 21 24 21 22 20 21 22 22 18 18 17 16 17 17 17 16 14 12 12 12 11 9 8 7 6 7 8 8 9 10 11
18 18 19 19 20 21 22 23 21 21 20 18 22 22 21 18 16 16 16 16 18 16 13 13 12 11 9 8 8 8 8 9 9 10 11 12 12 11
18 18 17 18 18 18 18 18 18 19 20 21 20 18 17 16 15 15 15 16 17 16 14 12 11 10 8 8 8 8 9 9 10 11 12 12 10 10
17 16 15 16 16 16 16 17 17 19 19 19 17 17 17 16 16 15 15 16 16 14 11 10 9 9 9 10 10 10 10 10 10 10 12 12 12 16
14 14 14 15 15 15 14 14 13 15 15 15 17 18 18 17 16 15 14 13 14 12 12 10 9 9 6 11 10 9 8 8 10 12 13 15 19 20
13 13 13 14 15 14 13 13 13 14 15 16 17 16 15 13 12 11 11 11 12 12 6 10 9 9 9 6 7 9 10 12 12 12 14 16 19 21
14 14 13 11 11 11 11 13 14 15 16 16 16 14 13 12 10 9 9 10 10 10 10 11 11 11 12 11 11 12 11 12 13 14 16 18 19 18
14 13 11 9 12 13 12 12 14 13 15 15 14 12 11 11 10 9 10 10 10 11 11 12 12 13 13 13 14 13 13 11 15 15 14 17 20 20
14 10 11 13 13 13 14 14 14 13 13 13 13 12 11 10 8 9 8 9 11 12 12 12 12 13 13 14 15 13 13 11 11 16 19 17 18 17
11 14 16 16 15 14 14 14 13 14 14 13 12 10 9 9 9 8 8 9 9 9 10 11 11 12 13 14 15 12 13 12 12 15 17 18 17 17
18 18 18 17 16 15 14 14 15 14 13 13 12 10 10 10 10 9 9 8 7 7 8 9 10 11 13 12 12 9 10 11 12 14 16 21 20 17
22 19 20 19 16 16 15 15 15 13 13 14 13 11 11 11 12 10 9 10 8 8 8 9 10 10 13 16 13 11 10 10 13 15 16 19 24 20
24 20 22 20 18 18 17 17 15 16 16 14 15 14 14 14 15 13 12 12 11 11 11 11 11 12 14 15 18 16 13 14 17 19 19 21 23 21
26 24 24 22 21 19 18 18 18 17 17 17 17 17 17 18 17 16 16 16 16 15 15 12 10 15 16 17 20 18 15 15 17 19 19 22 22 22
28 27 26 25 23 22 22 21 21 21 21 21 20 19 19 20 20 19 19 19 19 19 17 14 14 17 19 20 21 22 20 17 16 19 18 18 20 22
28 28 27 27 24 23 23 24 25 25 25 24 24 23 22 23 22 22 21 21 21 21 19 20 19 20 21 21 22 24 23 20 20 19 17 14 18 20
Wind_Direction
257 267 269 272 270 270 270 263 264 263 268 274 259 264 273 280 293 291 275 275 271 261 262 271 263 249 247 254 262 275 281 284 286 286 286 287 290 287
270 272 268 272 274 268 261 259 258 257 270 264 263 253 264 282 289 281 266 273 272 267 262 261 260 258 257 261 266 274 276 280 285 284 282 285 284 281
266 267 272 275 273 265 261 261 258 257 270 257 256 246 255 266 274 287 272 267 262 267 264 261 259 259 258 259 262 267 269 275 280 281 281 279 278 278
265 268 270 271 269 264 258 261 250 262 260 259 256 249 253 261 274 276 266 262 263 262 264 259 255 256 251 255 259 264 269 274 276 275 276 278 278 281
268 268 269 266 265 261 256 250 249 247 257 258 243 246 253 261 264 257 257 258 255 257 257 253 249 248 256 262 264 265 266 268 271 275 278 279 267 263
270 271 269 265 262 256 254 255 253 255 255 247 243 247 254 256 256 252 250 253 249 251 250 254 255 259 261 262 264 266 266 268 272 270 249 245 257 268
274 272 271 267 261 256 251 252 252 246 242 241 248 253 253 255 254 248 239 241 243 248 251 255 258 261 261 263 263 263 263 256 239 234 242 252 263 274
280 275 271 263 258 254 251 248 240 248 251 249 254 256 257 248 240 236 234 236 242 252 258 262 261 259 260 257 251 240 221 220 233 240 249 264 275 279
285 284 277 267 261 258 256 250 244 242 244 249 262 260 250 242 235 233 238 242 249 253 257 261 265 256 254 236 210 210 226 236 243 254 266 270 270 270
284 276 269 261 256 257 256 259 254 253 254 253 249 243 239 233 231 234 238 242 249 251 253 258 254 240 222 211 214 230 241 251 258 264 264 256 253 270
277 269 260 256 252 252 253 251 251 248 242 237 235 236 236 238 240 241 240 242 246 250 247 244 231 215 218 229 236 237 249 259 262 260 250 252 264 279
265 258 255 253 250 253 248 238 238 238 237 236 236 241 244 246 245 240 239 237 238 243 236 224 205 205 235 240 241 248 249 249 256 261 262 264 273 281
259 254 252 254 254 248 237 231 233 235 242 243 242 241 242 240 232 227 228 232 234 231 226 209 207 209 225 239 247 256 262 265 266 266 268 271 275 280
263 254 251 249 244 240 239 238 242 245 245 243 240 236 235 235 231 227 228 232 232 226 221 228 233 239 246 253 256 263 259 264 270 272 271 274 276 278
252 240 234 238 238 240 244 251 254 247 244 240 240 236 231 229 226 225 228 232 235 233 233 235 243 250 258 265 267 265 268 265 269 270 261 273 283 285
246 235 239 239 241 242 249 252 254 247 241 238 238 234 230 230 225 229 232 237 241 243 247 251 254 258 262 268 272 279 282 277 277 282 283 291 295 296
234 236 240 243 248 250 250 249 246 244 240 241 241 237 234 234 234 232 232 243 250 252 256 262 266 269 273 276 281 285 280 280 282 281 287 290 292 299
236 241 245 248 249 250 250 250 249 246 244 244 245 241 237 237 239 242 245 251 255 253 255 259 265 274 281 286 285 281 278 286 280 282 291 296 299 302
241 241 245 246 250 251 251 251 250 248 245 247 248 247 243 240 244 246 247 250 253 255 259 264 268 274 281 287 286 285 286 290 288 289 295 298 300 308
241 238 246 245 244 249 252 254 252 246 249 248 248 248 249 248 249 251 253 257 259 260 260 266 273 277 278 287 290 288 296 297 298 298 301 296 298 302
249 239 241 249 249 252 254 254 252 249 250 250 250 249 249 251 253 253 254 257 260 261 265 268 271 265 273 279 284 296 296 294 292 295 297 297 303 302
257 256 238 248 252 254 256 256 255 253 253 254 255 255 254 255 256 254 254 255 259 267 269 267 261 268 273 278 285 290 294 296 292 291 291 289 294 292
264 264 262 249 255 256 257 257 256 256 255 256 257 257 256 257 259 258 255 255 257 259 261 266 266 267 270 276 281 286 289 293 293 291 287 280 279 283
Height
1544 1546 1547 1547 1548 1548 1549 1549 1550 1548 1548 1549 1550 1550 1550 1549 1549 1548 1550 1548 1550 1549 1549 1551 1551 1551 1550 1550 1550 1550 1549 1549 1550 1551 1551 1551 1551 1551
1539 1540 1540 1540 1540 1540 1542 1542 1543 1543 1543 1543 1544 1544 1543 1544 1545 1544 1544 1543 1545 1545 1545 1547 1546 1549 1546 1546 1545 1546 1547 1546 1546 1546 1547 1547 1547 1547
1535 1533 1532 1532 1532 1532 1534 1535 1535 1536 1536 1535 1538 1537 1538 1538 1539 1539 1539 1539 1540 1541 1543 1543 1543 1543 1543 1542 1542 1542 1542 1542 1542 1543 1542 1543 1543 1543
1526 1525 1524 1524 1525 1525 1526 1528 1529 1530 1529 1533 1533 1532 1532 1533 1534 1533 1535 1536 1537 1537 1538 1539 1538 1538 1537 1538 1538 1538 1538 1538 1538 1539 1538 1539 1539 1539
1520 1518 1517 1516 1518 1518 1519 1520 1521 1522 1522 1523 1526 1526 1526 1528 1528 1527 1531 1531 1532 1533 1534 1533 1534 1533 1533 1534 1534 1534 1534 1534 1534 1534 1534 1534 1535 1536
1513 1512 1511 1509 1511 1511 1513 1515 1516 1516 1517 1518 1519 1519 1521 1522 1523 1524 1525 1525 1529 1531 1530 1530 1529 1528 1529 1530 1530 1530 1530 1530 1530 1530 1530 1532 1533 1534
1505 1504 1504 1505 1505 1506 1507 1508 1509 1510 1511 1513 1514 1515 1516 1516 1518 1519 1520 1521 1524 1527 1526 1525 1525 1524 1525 1525 1525 1525 1526 1526 1527 1528 1529 1530 1530 1531
1498 1498 1499 1499 1500 1501 1502 1501 1504 1504 1506 1509 1511 1511 1511 1511 1514 1514 1516 1517 1521 1523 1521 1520 1520 1520 1520 1521 1521 1522 1523 1524 1525 1526 1526 1527 1527 1527
1496 1494 1495 1494 1496 1497 1496 1498 1497 1500 1502 1503 1505 1507 1509 1508 1509 1511 1512 1513 1516 1518 1517 1515 1515 1516 1516 1517 1518 1519 1520 1522 1523 1523 1524 1524 1524 1524
1492 1491 1490 1490 1492 1493 1493 1494 1493 1495 1498 1499 1500 1503 1505 1505 1506 1507 1508 1509 1511 1512 1512 1511 1512 1512 1513 1514 1515 1516 1518 1519 1519 1520 1520 1520 1521 1522
1488 1487 1486 1487 1489 1490 1489 1490 1490 1493 1495 1495 1496 1500 1501 1501 1502 1502 1503 1504 1506 1507 1507 1507 1508 1509 1510 1511 1512 1514 1515 1515 1516 1516 1516 1517 1518 1517
1485 1484 1484 1485 1486 1486 1486 1487 1488 1491 1492 1493 1494 1496 1497 1497 1497 1497 1498 1499 1501 1503 1503 1504 1505 1507 1508 1508 1509 1510 1511 1511 1512 1512 1513 1513 1512 1511
1480 1481 1481 1482 1483 1483 1483 1485 1487 1488 1489 1491 1492 1492 1493 1493 1493 1493 1494 1495 1497 1499 1499 1501 1502 1503 1505 1506 1506 1507 1508 1508 1508 1508 1508 1507 1506 1505
1477 1478 1478 1479 1480 1481 1482 1484 1484 1485 1487 1489 1490 1489 1489 1489 1490 1489 1491 1492 1494 1496 1497 1498 1499 1501 1502 1503 1503 1503 1504 1503 1504 1504 1502 1501 1500 1499
1475 1475 1476 1478 1479 1480 1481 1481 1481 1483 1484 1485 1486 1486 1486 1486 1486 1486 1488 1489 1491 1492 1493 1495 1496 1497 1498 1498 1498 1499 1499 1499 1498 1497 1496 1495 1495 1493
1473 1473 1475 1476 1477 1478 1478 1479 1479 1480 1481 1482 1483 1483 1483 1483 1484 1484 1485 1487 1488 1489 1490 1491 1492 1493 1493 1492 1492 1493 1493 1493 1493 1491 1489 1489 1488 1487
1470 1471 1472 1473 1473 1474 1475 1476 1477 1478 1478 1479 1479 1479 1479 1480 1481 1482 1483 1484 1485 1485 1486 1487 1487 1487 1487 1487 1487 1488 1487 1487 1486 1485 1484 1483 1483 1481
1466 1467 1468 1469 1470 1471 1472 1473 1474 1475 1475 1476 1476 1476 1477 1477 1478 1479 1480 1480 1481 1482 1482 1483 1483 1483 1483 1483 1482 1482 1482 1482 1481 1480 1478 1476 1475 1475
1460 1463 1464 1465 1466 1468 1469 1469 1470 1471 1472 1471 1472 1473 1473 1474 1475 1476 1476 1477 1478 1478 1479 1479 1479 1479 1479 1478 1479 1478 1477 1477 1475 1474 1473 1471 1468 1468
1455 1458 1459 1460 1462 1463 1464 1465 1466 1466 1466 1467 1468 1468 1469 1470 1470 1471 1472 1473 1473 1474 1474 1475 1475 1475 1475 1475 1472 1473 1473 1472 1470 1468 1467 1465 1462 1461
1449 1450 1453 1455 1457 1458 1459 1460 1460 1461 1461 1462 1462 1463 1464 1464 1465 1466 1466 1467 1468 1468 1469 1471 1471 1470 1470 1469 1467 1467 1468 1467 1465 1462 1461 1458 1456 1453
1443 1444 1446 1447 1450 1452 1453 1453 1454 1454 1455 1455 1456 1457 1458 1458 1459 1460 1460 1461 1461 1462 1463 1465 1465 1464 1464 1463 1462 1461 1460 1461 1460 1457 1456 1454 1451 1447
1436 1437 1439 1441 1443 1444 1445 1446 1446 1447 1448 1448 1449 1450 1451 1451 1452 1453 1453 1454 1455 1456 1457 1458 1458 1458 1457 1457 1456 1454 1454 1454 1452 1450 1450 1448 1446 1444